Regional Weather Roundup
Issued by NWS

Home | Current Version | Previous Version | Graphics & Text | Print | Product List | Glossary On
Versions: 1 2 3 4 5 6 7 8 9 10 11 12 13 14 15 16 17 18 19 20 21 22 23 24 25 26 27 28 29 30 31 32 33 34 35 36 37 38 39 40 41 42 43 44 45 46 47 48 49 50
926
ASUS43 KFSD 130410
RWRSD

WEATHER ROUNDUP FOR SOUTH DAKOTA
NATIONAL WEATHER SERVICE SIOUX FALLS SD
1000 PM CST FRI FEB 12 2016

NOTE: "FAIR" INDICATES FEW OR NO CLOUDS BELOW 12,000 FEET WITH NO
SIGNIFICANT WEATHER AND/OR OBSTRUCTIONS TO VISIBILITY.


SDZ001>005-009-010-012>017-130500-
NORTHWEST AND NORTH CENTRAL SOUTH DAKOTA

CITY           SKY/WX    TMP DP  RH WIND       PRES   REMARKS
BUFFALO          N/A     20  16  84 SE17      30.22F WCI   5
FAITH            N/A     16   8  71 SE20G25   30.38F WCI  -1
MOBRIDGE       CLOUDY     6   0  76 SE10      30.50S WCI  -9
$$

SDZ012>016-024>037-041>051-057-063-072>074-130500-
SOUTHWEST AND SOUTH CENTRAL SOUTH DAKOTA

CITY           SKY/WX    TMP DP  RH WIND       PRES   REMARKS
RAPID CTY ARPT CLOUDY    23  21  92 SE16      30.28F WCI  10
PIERRE         CLOUDY    13   7  77 E12       30.52S WCI  -1
CUSTER         FOG       25  23  92 SW12G18   30.20F VSB 1/4 WCI  14
ELLSWORTH AFB  CLOUDY    24  23  99 SE14      30.26  WCI  11
PHILIP         CLOUDY    21  16  81 SE13      30.42F WCI   9
PINE RIDGE     CLOUDY    29  24  82 E10       30.30F WCI  20
SPEARFISH        N/A     25  25 100 NW5       30.20S WCI  19
WINNER         CLOUDY    17   9  70 SE15      30.50S WCI   2
$$

SDZ004>011-016>023-039-040-130500-
NORTHEAST SOUTH DAKOTA

CITY           SKY/WX    TMP DP  RH WIND       PRES   REMARKS
ABERDEEN       CLOUDY    -1  -9  68 E3        30.63F
WATERTOWN      CLOUDY    -8 -15  71 N6        30.57S WCI -21
BROOKINGS      CLOUDY    -5 -11  75 N6        30.59R WCI -18
SISSETON         N/A     -8 -13  78 NW6       30.66R WCI -21
$$

SDZ017-020-022-023-036>040-048>070-130500-
SOUTHEAST SOUTH DAKOTA

CITY           SKY/WX    TMP DP  RH WIND       PRES   REMARKS
SIOUX FALLS    CLOUDY     1  -6  72 NW5       30.61R WCI  -9
HURON          CLOUDY     2  -5  72 NE6       30.63F WCI  -9
CHAMBERLAIN    CLOUDY    11   5  76 E8        30.56S WCI   0
MITCHELL       CLOUDY     4  -3  73 NE5       30.63S WCI  -5
YANKTON        CLOUDY     9   0  66 N5        30.63S WCI   0
$$

ABBREVIATIONS USED IN REMARKS
   TC - TEMPERATURE IN CELSIUS
  WCI - WIND CHILL INDEX
   HX - HEAT INDEX
  VSB - VISIBILITY





USA.gov is the U.S. government's official web portal to all federal, state and local government web resources and services.